This is the latest recevied weather packets stored in our database for station/object SP9KB-14. If no packets are shown the sender has not sent any weather packets the latest 10 day(s).
| Time | Temp. | Humidity | Pressure | Rain* | Wind** | Luminosity | Snow |
|---|---|---|---|---|---|---|---|
| 1777930496 | 15.56° C | 55% | 1036.6 hPa | 0 mm | - | - | - |
| 1777930196 | 16.11° C | 55% | 1036.7 hPa | 0 mm | - | - | - |
| 1777929895 | 16.11° C | 55% | 1036.6 hPa | 0 mm | - | - | - |
| 1777929595 | 17.22° C | 53% | 1036.8 hPa | 0 mm | - | - | - |
| 1777929294 | 17.22° C | 52% | 1036.5 hPa | 0 mm | - | - | - |
| 1777928993 | 17.22° C | 51% | 1036.7 hPa | 0 mm | - | - | - |
| 1777928693 | 16.67° C | 52% | 1036.6 hPa | 0 mm | - | - | - |
| 1777928392 | 16.67° C | 53% | 1036.6 hPa | 0 mm | - | - | - |
| 1777928092 | 17.22° C | 54% | 1036.6 hPa | 0 mm | - | - | - |
| 1777927791 | 16.67° C | 54% | 1036.6 hPa | 0 mm | - | - | - |
| 1777927491 | 16.67° C | 54% | 1036.6 hPa | 0 mm | - | - | - |
| 1777927190 | 17.22° C | 54% | 1036.8 hPa | 0 mm | - | - | - |
| 1777926890 | 17.78° C | 53% | 1036.7 hPa | 0 mm | - | - | - |
| 1777926589 | 17.78° C | 53% | 1036.8 hPa | 0 mm | - | - | - |
| 1777926288 | 18.33° C | 53% | 1036.5 hPa | 0 mm | - | - | - |
| 1777925988 | 18.33° C | 53% | 1036.6 hPa | 0 mm | - | - | - |
| 1777925688 | 18.33° C | 53% | 1036.5 hPa | 0 mm | - | - | - |
| 1777925387 | 18.33° C | 53% | 1036.5 hPa | 0 mm | - | - | - |
| 1777925086 | 18.33° C | 53% | 1036.5 hPa | 0 mm | - | - | - |
| 1777924786 | 18.89° C | 53% | 1036.6 hPa | 0 mm | - | - | - |
| 1777924485 | 18.89° C | 53% | 1036.4 hPa | 0 mm | - | - | - |
| 1777924185 | 18.89° C | 53% | 1036.4 hPa | 0 mm | - | - | - |
| 1777923884 | 18.89° C | 53% | 1036.4 hPa | 0 mm | - | - | - |
| 1777923583 | 19.44° C | 51% | 1036.5 hPa | 0 mm | - | - | - |
| 1777923283 | 20° C | 50% | 1036.6 hPa | 0 mm | - | - | - |
* Rain latest hour (hover to see other rain measurements)
** Current wind speed in m/s (hover to see current wind gust speed)